Rechercher aéroport 
image banner adimage banner ad
image banner ad

SVHC - Caribe

Situé à Maiquetia, Venezuela

ICAO - SVHC, IATA -

Données fournies par Airmate  

Information générale

Coordonnées: N10°35'55" W66°59'48"
Élévation : 138 feet MSL.
 
Voir autres Aéroports à Zulia

Données opérationnelles

Accessible au public
Heure actuelle UTC:
Heure actuelle locale:
METAR: SVMI 201502Z AUTO 27009KT NCD ///// Q1012
TAF: TAF SVMI 201000Z 2012/2112 00000KT 9999 FEW016 TX34/2018Z TN24/2008Z BECMG 2015/2020 05006KT 9999 SCT016 FM202100 09006KT 9999 SCT016 SCT070
Voir NOTAMs / SUP AIP / TFR affectant cet aéroport [VIEW]
Fréquences de communication: [VIEW]

Pistes:

Coordonnées de l'aéroport

Adresse: Maiquetia Venezuela

Vue satellite de SVHC